Location: �terpigny
(49.8910°N, 2.9249°E)
Time: 23:31:22
(UTC+00:00)

Cosmos 1908 - Pass Details

Date: 07 June 2022
Orbit: 505 x 524 km, 82.5° (Epoch: 01 July)

Event Time Altitude Azimuth Distance (km) Brightness Sun altitude
Rises 23:38:01 0° 331° (NNW) 2,622 7.9 -17.3°
Reaches altitude 10° 23:41:10 10° 303° (WNW) 1,732 6.3 -17.3°
Maximum altitude 23:42:51 13° 276° (W) 1,569 5.7 -17.3°
Drops below altitude 10° 23:44:31 10° 250° (WSW) 1,728 5.7 -17.3°
Enters shadow 23:44:37 10° 248° (WSW) 1,746 5.7 -17.3°
